Location: North Evanston
(42.0634°N, 87.6976°W)
Time: 15:24:29
(UTC+00:00)

Vanguard 2 - Pass Details

Date: 19 May 2026
Orbit: 553 x 2894 km, 32.9° (Epoch: 8 June)

Event Time Altitude Azimuth Distance (km) Brightness Sun altitude
Rises 11:08:27 0° 275° (W) 6,729 11.8 6.3°
Reaches altitude 10° 11:13:15 10° 270° (W) 5,698 11.4 7.1°
Maximum altitude 11:28:58 46° 206° (SSW) 3,098 10.4 9.9°
Drops below altitude 10° 11:40:34 10° 138° (SE) 4,261 11.7 11.9°
Sets 11:43:36 0° 132° (SE) 4,965 12.1 12.5°
